STARLINK-34223, 64336

Orbit data source: Space-Track

STARLINK-34223, 64336 is a payload satellite owned by SpaceX/Seattle (US) in LEO that was launched on Tue, 10 Jun 2025 UTC via an FALCON 9 launch vehicle from the Air Force Eastern Test Range (AFETR). Payload-class satellites include a variety of spacecraft equipped with specific instruments for various scientific and technological missions. These include communications satellites like Starlink; space stations such as the ISS; scientific satellites like the Hubble; Earth observation satellites from companies like Planet Labs, Umbra, and HawkEye 360; GPS; miniature CubeSats for education and research; and military/defense satellites.

Loading next visibility...
Identifier
64336, 2025-124V
Orbit
LEO
Country
Flag of USUS
Related business
Manufacturer
SpaceX/Seattle
Mission
Operational Commercial Communications
Bus & Motor
STARLINK V2MO, Unknown motor
Mass
575 kg wet, ~530 kg dry
Launch date (UTC)
2025-06-10 (11 months ago)
Launch vehicle
FALCON 9
Launch site
Air Force Eastern Test Range (AFETR)
Object type
Payload
Rocket body
Debris
Shape & HBR
Box + 2 Pan, 17.7 m
Radar Cross Section
36.964 m², Large (>1 m²)

Expand to show TLE details & history
Last TLE update: 9 hours ago

TLE from 9 hours ago
0 STARLINK-34223
1 64336U 25124V   26119.88476650  .00023351  00000-0  85468-3 0  9997
2 64336  42.9961 188.8061 0002111 289.5178  70.5446 15.27606895 49651
Epoch: 2026-04-29T21:14Z
TLE epoch observation values (Epoch: 2026-04-29T21:14:03.825Z)
Latitude
0.00001°
Longitude
12.45086°
Altitude
482.261 km
Speed
7.626 km/s
True Right ascension
12h 35m 13s
True Declination
0° 00' 00"
Sunlit
Object was in full shadow at epoch
Visualization orbit readout
Latitude
Unknown
Longitude
Unknown
Altitude
Unknown
Speed
Unknown
Apparent Right ascension
Unknown
Apparent Declination
Unknown
Sunlit
N/A
Visualization observer readout
Local Sidereal Time
13:38:21
Azimuth
Unknown
Elevation
Unknown
Doppler factor
Unknown
Orbital elements
Apogee altitude
486.363 km
Perigee altitude
483.466 km
Semi-major axis
6,863.051 km
Eccentricity
0.00021
Inclination
42.9961°
RAAN
188.8061°
Arg. of periapsis
289.5178°
True anomaly
70.56741°
Mean anomaly
70.5446°
Eccentric anomaly
70.55601°
Mean motion
3.8174 °/min
Orbital period
94.31 mins
BSTAR
0.00085468
Loading maneuver chart data...
Computing Atmospheric mass density...
Loading historical data...
Loading historical data...
Loading historical data...
Loading historical data...
Loading historical data...
Loading historical data...
Loading historical data...

Documentation

Showing up to 5 results
|